Weather History for Lake Hood, AK

Change the Weather History Date:

Wednesday, July 31, 2013

  Actual Average Record
Temperature  
Mean Temperature 66 °F -  
Max Temperature 73 °F 65 °F 82 °F (2002)
Min Temperature 60 °F 52 °F 46 °F (1996)
Cooling Degree Days 2    
Growing Degree Days 16 (Base 50)    
Moisture  
Dew Point 55 °F    
Average Humidity 69    
Maximum Humidity 86    
Minimum Humidity 55    
Precipitation  
Precipitation 0.00 in - - ()
Sea Level Pressure  
Sea Level Pressure 30.19 in    
Wind  
Wind Speed 4 mph (NW)    
Max Wind Speed 9 mph    
Max Gust Speed -    
Visibility 9 miles    
Events      
Averages and records for this station are not official NWS values.
T = Trace of Precipitation, MM = Missing Value Source: NWS Daily Summary

Daily Weather History Graph

Daily Weather History Graph

Search for Another Location

Airport:

Trip Planner

Search our weather history database for the weather conditions in past years. The results will help you decide how hot, cold, wet, or windy it might be!

Date:

Astronomy

Jul. 31, 2013 Rise Set
Actual Time 5:30 AM AKDT 10:39 PM AKDT
Civil Twilight 4:24 AM AKDT 11:45 PM AKDT
Nautical Twilight 2:38 AM AKDT 1:33 AM AKDT
Astronomical Twilight Sun does not rise Sun does not rise
Moon 12:34 AM AKDT 6:11 PM AKDT
Length of Visible Light 19h 20m
Length of Day
17h 08m
Waning Crescent, 30% of the Moon is Illuminated
Jul 31
Waning Crescent
Aug 6
New
Aug 14
First Quarter
Aug 20
Full
Aug 28
Last Quarter

Hourly Weather History & Observations

Time (AKDT) Temp. Dew Point Humidity Pressure Visibility Wind Dir Wind Speed Gust Speed Precip Events Conditions
12:53 AM 64.0 °F 55.0 °F 73% 30.22 in 10.0 mi SW 5.8 mph - N/A   Clear
1:53 AM 63.0 °F 52.0 °F 67% 30.22 in 10.0 mi Variable 4.6 mph - N/A   Clear
2:53 AM 62.1 °F 54.0 °F 75% 30.22 in 9.0 mi Calm Calm - N/A   Clear
3:53 AM 60.1 °F 54.0 °F 80% 30.22 in 9.0 mi Calm Calm - N/A   Clear
4:53 AM 60.1 °F 54.0 °F 80% 30.22 in 8.0 mi Calm Calm - N/A   Partly Cloudy
5:53 AM 61.0 °F 53.1 °F 75% 30.22 in 10.0 mi Calm Calm - N/A   Clear
6:53 AM 60.1 °F 55.9 °F 86% 30.22 in 7.0 mi Calm Calm - N/A   Clear
7:53 AM 62.1 °F 55.0 °F 78% 30.22 in 8.0 mi Calm Calm - N/A   Overcast
8:53 AM 63.0 °F 55.9 °F 78% 30.22 in 9.0 mi North 3.5 mph - N/A   Mostly Cloudy
9:53 AM 63.0 °F 55.0 °F 75% 30.22 in 9.0 mi North 3.5 mph - N/A   Overcast
10:53 AM 64.0 °F 55.0 °F 73% 30.22 in 10.0 mi North 3.5 mph - N/A   Overcast
11:53 AM 66.0 °F 55.0 °F 68% 30.22 in 9.0 mi North 3.5 mph - N/A   Overcast
12:53 PM 68.0 °F 55.9 °F 65% 30.21 in 9.0 mi NW 4.6 mph - N/A   Overcast
1:53 PM 71.1 °F 54.0 °F 55% 30.20 in 10.0 mi WNW 5.8 mph - N/A   Mostly Cloudy
2:53 PM 73.0 °F 55.9 °F 55% 30.19 in 10.0 mi NW 4.6 mph - N/A   Clear
3:53 PM 71.1 °F 57.0 °F 61% 30.18 in 10.0 mi WNW 6.9 mph - N/A   Clear
4:53 PM 69.1 °F 55.9 °F 63% 30.17 in 9.0 mi WNW 9.2 mph - N/A   Clear
5:53 PM 71.1 °F 55.0 °F 57% 30.16 in 10.0 mi WNW 6.9 mph - N/A   Clear
6:53 PM 70.0 °F 55.0 °F 59% 30.15 in 10.0 mi NW 6.9 mph - N/A   Clear
7:53 PM 68.0 °F 55.0 °F 63% 30.14 in 10.0 mi WNW 6.9 mph - N/A   Clear
8:53 PM 66.0 °F 53.1 °F 63% 30.14 in 10.0 mi Calm Calm - N/A   Clear
9:53 PM 64.0 °F 53.1 °F 67% 30.14 in 9.0 mi West 3.5 mph - N/A   Clear
10:53 PM 62.1 °F 54.0 °F 75% 30.15 in 9.0 mi WSW 4.6 mph - N/A   Clear
11:53 PM 61.0 °F 53.1 °F 75% 30.16 in 9.0 mi SW 5.8 mph - N/A   Clear